User: anonymous   Login
Location: Killarney Provincial Park Observatory
(46.0124°N, 81.4000°W)
Time: 12:10:35
(UTC-04:00)
Language:

Iridium 22 - Orbit

View from above orbital plane
View from above orbital plane
View from above satellite
View from above satellite

Ground track
Ground track

The orbit data is extracted from the following two-line orbital elements,

1 24907U 97043E   16126.32497613  .00000204  00000-0  65856-4 0  9996
2 24907  86.3984  66.5744 0002197  84.3473 275.7973 14.34218699979363
Epoch (UTC): 05 May 2016 07:47:57
Eccentricity: 0.0002197
inclination: 86.3984°
perigee height: 776 km
apogee height: 779 km
right ascension of ascending node: 66.5744°
argument of perigee: 84.3473°
revolutions per day: 14.34218699
mean anomaly at epoch: 275.7973°
orbit number at epoch: 97936

The dashed part of the orbit path shows where the satellite is in the earth's shadow,  

DLR